station,date_time,longitude_east,latitude_north,depth,sw_sal,sw_sal_result_value_qualifier,sea_water_temperature,sea_water_temperature_result_value_qualifier,sea_water_pressure,sea_water_pressure_result_value_qualifier,KD_PAR,KD_PAR_result_value_qualifier
CH3-1,2017-01-26T00:00:00Z,-79.35,54.00,10.72,22.01,,-1.24,,, NC,, NC
CH3-1,2017-01-26T00:10:00Z,-79.35,54.00,10.72,21.97,,-1.25,,, NC,, NC
CH3-1,2017-01-26T00:20:00Z,-79.35,54.00,10.72,21.99,,-1.24,,, NC,, NC
CH3-1,2017-01-26T00:30:00Z,-79.35,54.00,10.72,21.84,,-1.23,,, NC,, NC
CH3-1,2017-01-26T00:40:00Z,-79.35,54.00,10.72,21.85,,-1.23,,, NC,, NC
CH3-1,2017-01-26T00:50:00Z,-79.35,54.00,10.72,21.77,,-1.22,,, NC,, NC
CH3-1,2017-01-26T01:00:00Z,-79.35,54.00,10.72,21.77,,-1.21,,, NC,, NC
CH3-1,2017-01-26T01:10:00Z,-79.35,54.00,10.72,21.81,,-1.21,,, NC,, NC
CH3-1,2017-01-26T01:20:00Z,-79.35,54.00,10.72,21.77,,-1.21,,, NC,, NC
CH3-1,2017-01-26T01:30:00Z,-79.35,54.00,10.72,21.78,,-1.21,,, NC,, NC
CH3-1,2017-01-26T01:40:00Z,-79.35,54.00,10.72,21.75,,-1.21,,, NC,, NC
CH3-1,2017-01-26T01:50:00Z,-79.35,54.00,10.72,21.68,,-1.21,,, NC,, NC
CH3-1,2017-01-26T02:00:00Z,-79.35,54.00,10.72,21.53,,-1.22,,, NC,, NC
CH3-1,2017-01-26T02:10:00Z,-79.35,54.00,10.72,21.58,,-1.19,,, NC,, NC
CH3-1,2017-01-26T02:20:00Z,-79.35,54.00,10.72,21.51,,-1.19,,, NC,, NC
CH3-1,2017-01-26T02:30:00Z,-79.35,54.00,10.72,21.47,,-1.20,,, NC,, NC
CH3-1,2017-01-26T02:40:00Z,-79.35,54.00,10.72,21.49,,-1.20,,, NC,, NC
CH3-1,2017-01-26T02:50:00Z,-79.35,54.00,10.72,21.62,,-1.21,,, NC,, NC
CH3-1,2017-01-26T03:00:00Z,-79.35,54.00,10.72,21.41,,-1.20,,, NC,, NC
CH3-1,2017-01-26T03:10:00Z,-79.35,54.00,10.72,21.40,,-1.20,,, NC,, NC
CH3-1,2017-01-26T03:20:00Z,-79.35,54.00,10.72,21.44,,-1.21,,, NC,, NC
CH3-1,2017-01-26T03:30:00Z,-79.35,54.00,10.72,21.50,,-1.22,,, NC,, NC
CH3-1,2017-01-26T03:40:00Z,-79.35,54.00,10.72,21.60,,-1.23,,, NC,, NC
CH3-1,2017-01-26T03:50:00Z,-79.35,54.00,10.72,21.76,,-1.24,,, NC,, NC
CH3-1,2017-01-26T04:00:00Z,-79.35,54.00,10.72,22.08,,-1.26,,, NC,, NC
CH3-1,2017-01-26T04:10:00Z,-79.35,54.00,10.72,21.97,,-1.24,,, NC,, NC
CH3-1,2017-01-26T04:20:00Z,-79.35,54.00,10.72,21.67,,-1.22,,, NC,, NC
CH3-1,2017-01-26T04:30:00Z,-79.35,54.00,10.72,21.59,,-1.25,,, NC,, NC
CH3-1,2017-01-26T04:40:00Z,-79.35,54.00,10.72,21.68,,-1.25,,, NC,, NC
CH3-1,2017-01-26T04:50:00Z,-79.35,54.00,10.72,21.57,,-1.24,,, NC,, NC
CH3-1,2017-01-26T05:00:00Z,-79.35,54.00,10.72,22.49,,-1.30,,, NC,, NC
CH3-1,2017-01-26T05:10:00Z,-79.35,54.00,10.72,22.33,,-1.29,,, NC,, NC
CH3-1,2017-01-26T05:20:00Z,-79.35,54.00,10.72,22.27,,-1.30,,, NC,, NC
CH3-1,2017-01-26T05:30:00Z,-79.35,54.00,10.72,22.04,,-1.28,,, NC,, NC
CH3-1,2017-01-26T05:40:00Z,-79.35,54.00,10.72,22.18,,-1.28,,, NC,, NC
CH3-1,2017-01-26T05:50:00Z,-79.35,54.00,10.72,22.45,,-1.30,,, NC,, NC
CH3-1,2017-01-26T06:00:00Z,-79.35,54.00,10.72,22.49,,-1.31,,, NC,, NC
CH3-1,2017-01-26T06:10:00Z,-79.35,54.00,10.72,22.54,,-1.31,,, NC,, NC
CH3-1,2017-01-26T06:20:00Z,-79.35,54.00,10.72,22.53,,-1.31,,, NC,, NC
CH3-1,2017-01-26T06:30:00Z,-79.35,54.00,10.72,22.57,,-1.31,,, NC,, NC
CH3-1,2017-01-26T06:40:00Z,-79.35,54.00,10.72,22.65,,-1.32,,, NC,, NC
CH3-1,2017-01-26T06:50:00Z,-79.35,54.00,10.72,22.69,,-1.32,,, NC,, NC
CH3-1,2017-01-26T07:00:00Z,-79.35,54.00,10.72,22.70,,-1.32,,, NC,, NC
CH3-1,2017-01-26T07:10:00Z,-79.35,54.00,10.72,22.69,,-1.32,,, NC,, NC
CH3-1,2017-01-26T07:20:00Z,-79.35,54.00,10.72,22.63,,-1.32,,, NC,, NC
CH3-1,2017-01-26T07:30:00Z,-79.35,54.00,10.72,22.61,,-1.32,,, NC,, NC
CH3-1,2017-01-26T07:40:00Z,-79.35,54.00,10.72,22.52,,-1.32,,, NC,, NC
CH3-1,2017-01-26T07:50:00Z,-79.35,54.00,10.72,22.49,,-1.31,,, NC,, NC
CH3-1,2017-01-26T08:00:00Z,-79.35,54.00,10.72,22.51,,-1.31,,, NC,, NC
CH3-1,2017-01-26T08:10:00Z,-79.35,54.00,10.72,22.48,,-1.31,,, NC,, NC
CH3-1,2017-01-26T08:20:00Z,-79.35,54.00,10.72,22.46,,-1.31,,, NC,, NC
CH3-1,2017-01-26T08:30:00Z,-79.35,54.00,10.72,22.42,,-1.31,,, NC,, NC
CH3-1,2017-01-26T08:40:00Z,-79.35,54.00,10.72,22.36,,-1.31,,, NC,, NC
CH3-1,2017-01-26T08:50:00Z,-79.35,54.00,10.72,22.30,,-1.31,,, NC,, NC
CH3-1,2017-01-26T09:00:00Z,-79.35,54.00,10.72,22.34,,-1.31,,, NC,, NC
CH3-1,2017-01-26T09:10:00Z,-79.35,54.00,10.72,22.52,,-1.31,,, NC,, NC
CH3-1,2017-01-26T09:20:00Z,-79.35,54.00,10.72,22.56,,-1.31,,, NC,, NC
CH3-1,2017-01-26T09:30:00Z,-79.35,54.00,10.72,22.54,,-1.31,,, NC,, NC
CH3-1,2017-01-26T09:40:00Z,-79.35,54.00,10.72,22.60,,-1.31,,, NC,, NC
CH3-1,2017-01-26T09:50:00Z,-79.35,54.00,10.72,22.64,,-1.31,,, NC,, NC
CH3-1,2017-01-26T10:00:00Z,-79.35,54.00,10.72,22.67,,-1.32,,, NC,, NC
CH3-1,2017-01-26T10:10:00Z,-79.35,54.00,10.72,22.70,,-1.32,,, NC,, NC
CH3-1,2017-01-26T10:20:00Z,-79.35,54.00,10.72,22.63,,-1.32,,, NC,, NC
CH3-1,2017-01-26T10:30:00Z,-79.35,54.00,10.72,22.61,,-1.32,,, NC,, NC
CH3-1,2017-01-26T10:40:00Z,-79.35,54.00,10.72,22.60,,-1.32,,, NC,, NC
CH3-1,2017-01-26T10:50:00Z,-79.35,54.00,10.72,22.66,,-1.32,,, NC,, NC
CH3-1,2017-01-26T11:00:00Z,-79.35,54.00,10.72,22.65,,-1.32,,, NC,, NC
CH3-1,2017-01-26T11:10:00Z,-79.35,54.00,10.72,22.66,,-1.32,,, NC,, NC
CH3-1,2017-01-26T11:20:00Z,-79.35,54.00,10.72,22.46,,-1.30,,, NC,, NC
CH3-1,2017-01-26T11:30:00Z,-79.35,54.00,10.72,22.48,,-1.31,,, NC,, NC
CH3-1,2017-01-26T11:40:00Z,-79.35,54.00,10.72,22.51,,-1.30,,, NC,, NC
CH3-1,2017-01-26T11:50:00Z,-79.35,54.00,10.72,22.61,,-1.31,,, NC,, NC
CH3-1,2017-01-26T12:00:00Z,-79.35,54.00,10.72,22.66,,-1.32,,, NC,, NC
CH3-1,2017-01-26T12:10:00Z,-79.35,54.00,10.72,22.48,,-1.31,,, NC,, NC
CH3-1,2017-01-26T12:20:00Z,-79.35,54.00,10.72,22.33,,-1.30,,, NC,, NC
CH3-1,2017-01-26T12:30:00Z,-79.35,54.00,10.72,22.33,,-1.30,,, NC,, NC
CH3-1,2017-01-26T12:40:00Z,-79.35,54.00,10.72,22.21,,-1.29,,, NC,, NC
CH3-1,2017-01-26T12:50:00Z,-79.35,54.00,10.72,22.23,,-1.32,,, NC,, NC
CH3-1,2017-01-26T13:00:00Z,-79.35,54.00,10.72,22.21,,-1.31,,, NC,, NC
CH3-1,2017-01-26T13:10:00Z,-79.35,54.00,10.72,22.18,,-1.33,,, NC,, NC
CH3-1,2017-01-26T13:20:00Z,-79.35,54.00,10.72,22.17,,-1.32,,, NC,, NC
CH3-1,2017-01-26T13:30:00Z,-79.35,54.00,10.72,22.17,,-1.31,,, NC,, NC
CH3-1,2017-01-26T13:40:00Z,-79.35,54.00,10.72,22.25,,-1.33,,, NC,, NC
CH3-1,2017-01-26T13:50:00Z,-79.35,54.00,10.72,22.32,,-1.33,,, NC,, NC
CH3-1,2017-01-26T14:00:00Z,-79.35,54.00,10.72,22.63,,-1.33,,, NC,, NC
CH3-1,2017-01-26T14:10:00Z,-79.35,54.00,10.72,22.46,,-1.33,,, NC,, NC
CH3-1,2017-01-26T14:20:00Z,-79.35,54.00,10.72,22.61,,-1.33,,, NC,, NC
CH3-1,2017-01-26T14:30:00Z,-79.35,54.00,10.72,22.50,,-1.33,,, NC,, NC
CH3-1,2017-01-26T14:40:00Z,-79.35,54.00,10.72,22.61,,-1.33,,, NC,, NC
CH3-1,2017-01-26T14:50:00Z,-79.35,54.00,10.72,22.55,,-1.33,,, NC,, NC
CH3-1,2017-01-26T15:00:00Z,-79.35,54.00,10.72,22.30,,-1.32,,, NC,, NC
CH3-1,2017-01-26T15:10:00Z,-79.35,54.00,10.72,22.35,,-1.33,,, NC,, NC
CH3-1,2017-01-26T15:20:00Z,-79.35,54.00,10.72,22.34,,-1.33,,, NC,, NC
CH3-1,2017-01-26T15:30:00Z,-79.35,54.00,10.72,22.37,,-1.32,,, NC,, NC
CH3-1,2017-01-26T15:40:00Z,-79.35,54.00,10.72,22.43,,-1.33,,, NC,, NC
CH3-1,2017-01-26T15:50:00Z,-79.35,54.00,10.72,22.39,,-1.33,,, NC,, NC
CH3-1,2017-01-26T16:00:00Z,-79.35,54.00,10.72,22.26,,-1.32,,, NC,, NC
CH3-1,2017-01-26T16:10:00Z,-79.35,54.00,10.72,22.51,,-1.33,,, NC,, NC
CH3-1,2017-01-26T16:20:00Z,-79.35,54.00,10.72,22.12,,-1.31,,, NC,, NC
CH3-1,2017-01-26T16:30:00Z,-79.35,54.00,10.72,22.00,,-1.29,,, NC,, NC
CH3-1,2017-01-26T16:40:00Z,-79.35,54.00,10.72,22.05,,-1.30,,, NC,, NC
CH3-1,2017-01-26T16:50:00Z,-79.35,54.00,10.72,22.12,,-1.30,,, NC,, NC
CH3-1,2017-01-26T17:00:00Z,-79.35,54.00,10.72,22.25,,-1.32,,, NC,, NC
CH3-1,2017-01-26T17:10:00Z,-79.35,54.00,10.72,22.39,,-1.33,,, NC,, NC
CH3-1,2017-01-26T17:20:00Z,-79.35,54.00,10.72,22.43,,-1.33,,, NC,, NC
CH3-1,2017-01-26T17:30:00Z,-79.35,54.00,10.72,22.35,,-1.33,,, NC,, NC
CH3-1,2017-01-26T17:40:00Z,-79.35,54.00,10.72,22.40,,-1.33,,, NC,, NC
CH3-1,2017-01-26T17:50:00Z,-79.35,54.00,10.72,21.92,,-1.31,,, NC,, NC
CH3-1,2017-01-26T18:00:00Z,-79.35,54.00,10.72,22.50,,-1.33,,, NC,, NC
CH3-1,2017-01-26T18:10:00Z,-79.35,54.00,10.72,22.55,,-1.33,,, NC,, NC
CH3-1,2017-01-26T18:20:00Z,-79.35,54.00,10.72,22.63,,-1.33,,, NC,, NC
CH3-1,2017-01-26T18:30:00Z,-79.35,54.00,10.72,22.53,,-1.32,,, NC,, NC
CH3-1,2017-01-26T18:40:00Z,-79.35,54.00,10.72,22.35,,-1.32,,, NC,, NC
CH3-1,2017-01-26T18:50:00Z,-79.35,54.00,10.72,22.24,,-1.31,,, NC,, NC
CH3-1,2017-01-26T19:00:00Z,-79.35,54.00,10.72,22.35,,-1.31,,, NC,, NC
CH3-1,2017-01-26T19:10:00Z,-79.35,54.00,10.72,22.39,,-1.31,,, NC,, NC
CH3-1,2017-01-26T19:20:00Z,-79.35,54.00,10.72,22.15,,-1.29,,, NC,, NC
CH3-1,2017-01-26T19:30:00Z,-79.35,54.00,10.72,22.03,,-1.29,,, NC,, NC
CH3-1,2017-01-26T19:40:00Z,-79.35,54.00,10.72,22.00,,-1.29,,, NC,, NC
CH3-1,2017-01-26T19:50:00Z,-79.35,54.00,10.72,22.00,,-1.29,,, NC,, NC
CH3-1,2017-01-26T20:00:00Z,-79.35,54.00,10.72,21.96,,-1.29,,, NC,, NC
CH3-1,2017-01-26T20:10:00Z,-79.35,54.00,10.72,21.99,,-1.29,,, NC,, NC
CH3-1,2017-01-26T20:20:00Z,-79.35,54.00,10.72,22.01,,-1.29,,, NC,, NC
CH3-1,2017-01-26T20:30:00Z,-79.35,54.00,10.72,21.95,,-1.29,,, NC,, NC
CH3-1,2017-01-26T20:40:00Z,-79.35,54.00,10.72,22.00,,-1.29,,, NC,, NC
CH3-1,2017-01-26T20:50:00Z,-79.35,54.00,10.72,22.04,,-1.29,,, NC,, NC
CH3-1,2017-01-26T21:00:00Z,-79.35,54.00,10.72,22.07,,-1.29,,, NC,, NC
CH3-1,2017-01-26T21:10:00Z,-79.35,54.00,10.72,22.02,,-1.29,,, NC,, NC
CH3-1,2017-01-26T21:20:00Z,-79.35,54.00,10.72,22.11,,-1.30,,, NC,, NC
CH3-1,2017-01-26T21:30:00Z,-79.35,54.00,10.72,22.17,,-1.30,,, NC,, NC
CH3-1,2017-01-26T21:40:00Z,-79.35,54.00,10.72,22.17,,-1.30,,, NC,, NC
CH3-1,2017-01-26T21:50:00Z,-79.35,54.00,10.72,22.10,,-1.29,,, NC,, NC
CH3-1,2017-01-26T22:00:00Z,-79.35,54.00,10.72,22.04,,-1.29,,, NC,, NC
CH3-1,2017-01-26T22:10:00Z,-79.35,54.00,10.72,22.03,,-1.29,,, NC,, NC
CH3-1,2017-01-26T22:20:00Z,-79.35,54.00,10.72,22.03,,-1.29,,, NC,, NC
CH3-1,2017-01-26T22:30:00Z,-79.35,54.00,10.72,22.06,,-1.29,,, NC,, NC
CH3-1,2017-01-26T22:40:00Z,-79.35,54.00,10.72,22.07,,-1.29,,, NC,, NC
CH3-1,2017-01-26T22:50:00Z,-79.35,54.00,10.72,22.08,,-1.29,,, NC,, NC
CH3-1,2017-01-26T23:00:00Z,-79.35,54.00,10.72,22.09,,-1.30,,, NC,, NC
CH3-1,2017-01-26T23:10:00Z,-79.35,54.00,10.72,22.09,,-1.30,,, NC,, NC
CH3-1,2017-01-26T23:20:00Z,-79.35,54.00,10.72,22.11,,-1.30,,, NC,, NC
CH3-1,2017-01-26T23:30:00Z,-79.35,54.00,10.72,22.09,,-1.30,,, NC,, NC
CH3-1,2017-01-26T23:40:00Z,-79.35,54.00,10.72,22.08,,-1.29,,, NC,, NC
CH3-1,2017-01-26T23:50:00Z,-79.35,54.00,10.72,22.09,,-1.30,,, NC,, NC
CH3-1,2017-01-27T00:00:00Z,-79.35,54.00,10.72,22.13,,-1.30,,, NC,, NC
CH3-1,2017-01-27T00:10:00Z,-79.35,54.00,10.72,22.53,,-1.32,,, NC,, NC
CH3-1,2017-01-27T00:20:00Z,-79.35,54.00,10.72,22.54,,-1.32,,, NC,, NC
CH3-1,2017-01-27T00:30:00Z,-79.35,54.00,10.72,22.50,,-1.32,,, NC,, NC
CH3-1,2017-01-27T00:40:00Z,-79.35,54.00,10.72,22.48,,-1.31,,, NC,, NC
CH3-1,2017-01-27T00:50:00Z,-79.35,54.00,10.72,22.30,,-1.31,,, NC,, NC
CH3-1,2017-01-27T01:00:00Z,-79.35,54.00,10.72,22.48,,-1.31,,, NC,, NC
CH3-1,2017-01-27T01:10:00Z,-79.35,54.00,10.72,22.54,,-1.32,,, NC,, NC
CH3-1,2017-01-27T01:20:00Z,-79.35,54.00,10.72,22.77,,-1.33,,, NC,, NC
CH3-1,2017-01-27T01:30:00Z,-79.35,54.00,10.72,22.75,,-1.33,,, NC,, NC
CH3-1,2017-01-27T01:40:00Z,-79.35,54.00,10.72,22.77,,-1.33,,, NC,, NC
CH3-1,2017-01-27T01:50:00Z,-79.35,54.00,10.72,22.75,,-1.33,,, NC,, NC
CH3-1,2017-01-27T02:00:00Z,-79.35,54.00,10.72,22.77,,-1.32,,, NC,, NC
CH3-1,2017-01-27T02:10:00Z,-79.35,54.00,10.72,22.74,,-1.32,,, NC,, NC
CH3-1,2017-01-27T02:20:00Z,-79.35,54.00,10.72,22.74,,-1.32,,, NC,, NC
CH3-1,2017-01-27T02:30:00Z,-79.35,54.00,10.72,22.57,,-1.31,,, NC,, NC
CH3-1,2017-01-27T02:40:00Z,-79.35,54.00,10.72,22.61,,-1.31,,, NC,, NC
CH3-1,2017-01-27T02:50:00Z,-79.35,54.00,10.72,22.64,,-1.31,,, NC,, NC
CH3-1,2017-01-27T03:00:00Z,-79.35,54.00,10.72,22.68,,-1.31,,, NC,, NC
CH3-1,2017-01-27T03:10:00Z,-79.35,54.00,10.72,22.72,,-1.31,,, NC,, NC
CH3-1,2017-01-27T03:20:00Z,-79.35,54.00,10.72,22.74,,-1.31,,, NC,, NC
CH3-1,2017-01-27T03:30:00Z,-79.35,54.00,10.72,22.72,,-1.31,,, NC,, NC
CH3-1,2017-01-27T03:40:00Z,-79.35,54.00,10.72,22.73,,-1.31,,, NC,, NC
CH3-1,2017-01-27T03:50:00Z,-79.35,54.00,10.72,22.79,,-1.31,,, NC,, NC
CH3-1,2017-01-27T04:00:00Z,-79.35,54.00,10.72,22.74,,-1.31,,, NC,, NC
CH3-1,2017-01-27T04:10:00Z,-79.35,54.00,10.72,22.72,,-1.31,,, NC,, NC
CH3-1,2017-01-27T04:20:00Z,-79.35,54.00,10.72,22.70,,-1.32,,, NC,, NC
CH3-1,2017-01-27T04:30:00Z,-79.35,54.00,10.72,22.41,,-1.29,,, NC,, NC
CH3-1,2017-01-27T04:40:00Z,-79.35,54.00,10.72,22.70,,-1.31,,, NC,, NC
CH3-1,2017-01-27T04:50:00Z,-79.35,54.00,10.72,22.72,,-1.31,,, NC,, NC
CH3-1,2017-01-27T05:00:00Z,-79.35,54.00,10.72,22.71,,-1.31,,, NC,, NC
CH3-1,2017-01-27T05:10:00Z,-79.35,54.00,10.72,22.59,,-1.31,,, NC,, NC
CH3-1,2017-01-27T05:20:00Z,-79.35,54.00,10.72,22.70,,-1.31,,, NC,, NC
CH3-1,2017-01-27T05:30:00Z,-79.35,54.00,10.72,22.77,,-1.33,,, NC,, NC
CH3-1,2017-01-27T05:40:00Z,-79.35,54.00,10.72,22.68,,-1.33,,, NC,, NC
CH3-1,2017-01-27T05:50:00Z,-79.35,54.00,10.72,22.60,,-1.32,,, NC,, NC
CH3-1,2017-01-27T06:00:00Z,-79.35,54.00,10.72,22.72,,-1.33,,, NC,, NC
CH3-1,2017-01-27T06:10:00Z,-79.35,54.00,10.72,22.69,,-1.33,,, NC,, NC
CH3-1,2017-01-27T06:20:00Z,-79.35,54.00,10.72,22.71,,-1.33,,, NC,, NC
CH3-1,2017-01-27T06:30:00Z,-79.35,54.00,10.72,22.74,,-1.33,,, NC,, NC
CH3-1,2017-01-27T06:40:00Z,-79.35,54.00,10.72,22.65,,-1.32,,, NC,, NC
CH3-1,2017-01-27T06:50:00Z,-79.35,54.00,10.72,22.29,,-1.31,,, NC,, NC
CH3-1,2017-01-27T07:00:00Z,-79.35,54.00,10.72,22.10,,-1.31,,, NC,, NC
CH3-1,2017-01-27T07:10:00Z,-79.35,54.00,10.72,22.46,,-1.32,,, NC,, NC
CH3-1,2017-01-27T07:20:00Z,-79.35,54.00,10.72,22.57,,-1.32,,, NC,, NC
CH3-1,2017-01-27T07:30:00Z,-79.35,54.00,10.72,22.55,,-1.33,,, NC,, NC
CH3-1,2017-01-27T07:40:00Z,-79.35,54.00,10.72,22.59,,-1.33,,, NC,, NC
CH3-1,2017-01-27T07:50:00Z,-79.35,54.00,10.72,22.66,,-1.34,,, NC,, NC
CH3-1,2017-01-27T08:00:00Z,-79.35,54.00,10.72,22.66,,-1.34,,, NC,, NC
CH3-1,2017-01-27T08:10:00Z,-79.35,54.00,10.72,22.69,,-1.34,,, NC,, NC
CH3-1,2017-01-27T08:20:00Z,-79.35,54.00,10.72,22.62,,-1.33,,, NC,, NC
CH3-1,2017-01-27T08:30:00Z,-79.35,54.00,10.72,22.40,,-1.30,,, NC,, NC
CH3-1,2017-01-27T08:40:00Z,-79.35,54.00,10.72,22.44,,-1.30,,, NC,, NC
CH3-1,2017-01-27T08:50:00Z,-79.35,54.00,10.72,22.43,,-1.31,,, NC,, NC
CH3-1,2017-01-27T09:00:00Z,-79.35,54.00,10.72,22.48,,-1.31,,, NC,, NC
CH3-1,2017-01-27T09:10:00Z,-79.35,54.00,10.72,22.48,,-1.30,,, NC,, NC
CH3-1,2017-01-27T09:20:00Z,-79.35,54.00,10.72,22.45,,-1.29,,, NC,, NC
CH3-1,2017-01-27T09:30:00Z,-79.35,54.00,10.72,22.34,,-1.28,,, NC,, NC
CH3-1,2017-01-27T09:40:00Z,-79.35,54.00,10.72,22.41,,-1.29,,, NC,, NC
CH3-1,2017-01-27T09:50:00Z,-79.35,54.00,10.72,22.52,,-1.30,,, NC,, NC
CH3-1,2017-01-27T10:00:00Z,-79.35,54.00,10.72,22.57,,-1.31,,, NC,, NC
CH3-1,2017-01-27T10:10:00Z,-79.35,54.00,10.72,22.57,,-1.31,,, NC,, NC
CH3-1,2017-01-27T10:20:00Z,-79.35,54.00,10.72,22.56,,-1.31,,, NC,, NC
CH3-1,2017-01-27T10:30:00Z,-79.35,54.00,10.72,22.56,,-1.31,,, NC,, NC
CH3-1,2017-01-27T10:40:00Z,-79.35,54.00,10.72,22.63,,-1.31,,, NC,, NC
CH3-1,2017-01-27T10:50:00Z,-79.35,54.00,10.72,22.63,,-1.31,,, NC,, NC
CH3-1,2017-01-27T11:00:00Z,-79.35,54.00,10.72,22.64,,-1.31,,, NC,, NC
CH3-1,2017-01-27T11:10:00Z,-79.35,54.00,10.72,22.66,,-1.32,,, NC,, NC
CH3-1,2017-01-27T11:20:00Z,-79.35,54.00,10.72,22.64,,-1.31,,, NC,, NC
CH3-1,2017-01-27T11:30:00Z,-79.35,54.00,10.72,22.66,,-1.31,,, NC,, NC
CH3-1,2017-01-27T11:40:00Z,-79.35,54.00,10.72,22.71,,-1.31,,, NC,, NC
CH3-1,2017-01-27T11:50:00Z,-79.35,54.00,10.72,22.73,,-1.31,,, NC,, NC
CH3-1,2017-01-27T12:00:00Z,-79.35,54.00,10.72,22.72,,-1.31,,, NC,, NC
CH3-1,2017-01-27T12:10:00Z,-79.35,54.00,10.72,22.80,,-1.32,,, NC,, NC
CH3-1,2017-01-27T12:20:00Z,-79.35,54.00,10.72,22.71,,-1.31,,, NC,, NC
CH3-1,2017-01-27T12:30:00Z,-79.35,54.00,10.72,22.67,,-1.30,,, NC,, NC
CH3-1,2017-01-27T12:40:00Z,-79.35,54.00,10.72,22.67,,-1.30,,, NC,, NC
CH3-1,2017-01-27T12:50:00Z,-79.35,54.00,10.72,22.60,,-1.31,,, NC,, NC
CH3-1,2017-01-27T13:00:00Z,-79.35,54.00,10.72,22.72,,-1.31,,, NC,, NC
CH3-1,2017-01-27T13:10:00Z,-79.35,54.00,10.72,22.72,,-1.32,,, NC,, NC
CH3-1,2017-01-27T13:20:00Z,-79.35,54.00,10.72,22.73,,-1.32,,, NC,, NC
CH3-1,2017-01-27T13:30:00Z,-79.35,54.00,10.72,22.68,,-1.31,,, NC,, NC
CH3-1,2017-01-27T13:40:00Z,-79.35,54.00,10.72,22.70,,-1.32,,, NC,, NC
CH3-1,2017-01-27T13:50:00Z,-79.35,54.00,10.72,22.71,,-1.32,,, NC,, NC
CH3-1,2017-01-27T14:00:00Z,-79.35,54.00,10.72,22.73,,-1.32,,, NC,, NC
CH3-1,2017-01-27T14:10:00Z,-79.35,54.00,10.72,22.77,,-1.32,,, NC,, NC
CH3-1,2017-01-27T14:20:00Z,-79.35,54.00,10.72,22.82,,-1.32,,, NC,, NC
CH3-1,2017-01-27T14:30:00Z,-79.35,54.00,10.72,22.89,,-1.33,,, NC,, NC
CH3-1,2017-01-27T14:40:00Z,-79.35,54.00,10.72,22.86,,-1.33,,, NC,, NC
CH3-1,2017-01-27T14:50:00Z,-79.35,54.00,10.72,22.88,,-1.33,,, NC,, NC
CH3-1,2017-01-27T15:00:00Z,-79.35,54.00,10.72,22.84,,-1.33,,, NC,, NC
CH3-1,2017-01-27T15:10:00Z,-79.35,54.00,10.72,22.85,,-1.33,,, NC,, NC
CH3-1,2017-01-27T15:20:00Z,-79.35,54.00,10.72,22.85,,-1.33,,, NC,, NC
CH3-1,2017-01-27T15:30:00Z,-79.35,54.00,10.72,22.83,,-1.33,,, NC,, NC
CH3-1,2017-01-27T15:40:00Z,-79.35,54.00,10.72,22.79,,-1.32,,, NC,, NC
CH3-1,2017-01-27T15:50:00Z,-79.35,54.00,10.72,22.80,,-1.31,,, NC,, NC
CH3-1,2017-01-27T16:00:00Z,-79.35,54.00,10.72,22.83,,-1.31,,, NC,, NC
CH3-1,2017-01-27T16:10:00Z,-79.35,54.00,10.72,22.85,,-1.31,,, NC,, NC
CH3-1,2017-01-27T16:20:00Z,-79.35,54.00,10.72,22.83,,-1.31,,, NC,, NC
CH3-1,2017-01-27T16:30:00Z,-79.35,54.00,10.72,22.81,,-1.31,,, NC,, NC
CH3-1,2017-01-27T16:40:00Z,-79.35,54.00,10.72,22.82,,-1.31,,, NC,, NC
CH3-1,2017-01-27T16:50:00Z,-79.35,54.00,10.72,22.85,,-1.32,,, NC,, NC
CH3-1,2017-01-27T17:00:00Z,-79.35,54.00,10.72,22.84,,-1.32,,, NC,, NC
CH3-1,2017-01-27T17:10:00Z,-79.35,54.00,10.72,22.66,,-1.31,,, NC,, NC
CH3-1,2017-01-27T17:20:00Z,-79.35,54.00,10.72,22.78,,-1.31,,, NC,, NC
CH3-1,2017-01-27T17:30:00Z,-79.35,54.00,10.72,22.70,,-1.31,,, NC,, NC
CH3-1,2017-01-27T17:40:00Z,-79.35,54.00,10.72,22.59,,-1.30,,, NC,, NC
CH3-1,2017-01-27T17:50:00Z,-79.35,54.00,10.72,22.64,,-1.31,,, NC,, NC
CH3-1,2017-01-27T18:00:00Z,-79.35,54.00,10.72,22.79,,-1.32,,, NC,, NC
CH3-1,2017-01-27T18:10:00Z,-79.35,54.00,10.72,22.77,,-1.32,,, NC,, NC
CH3-1,2017-01-27T18:20:00Z,-79.35,54.00,10.72,22.75,,-1.31,,, NC,, NC
CH3-1,2017-01-27T18:30:00Z,-79.35,54.00,10.72,22.84,,-1.32,,, NC,, NC
CH3-1,2017-01-27T18:40:00Z,-79.35,54.00,10.72,22.86,,-1.31,,, NC,, NC
CH3-1,2017-01-27T18:50:00Z,-79.35,54.00,10.72,22.80,,-1.31,,, NC,, NC
CH3-1,2017-01-27T19:00:00Z,-79.35,54.00,10.72,22.61,,-1.30,,, NC,, NC
CH3-1,2017-01-27T19:10:00Z,-79.35,54.00,10.72,22.82,,-1.31,,, NC,, NC
CH3-1,2017-01-27T19:20:00Z,-79.35,54.00,10.72,22.75,,-1.31,,, NC,, NC
CH3-1,2017-01-27T19:30:00Z,-79.35,54.00,10.72,22.61,,-1.29,,, NC,, NC
CH3-1,2017-01-27T19:40:00Z,-79.35,54.00,10.72,22.70,,-1.30,,, NC,, NC
CH3-1,2017-01-27T19:50:00Z,-79.35,54.00,10.72,22.74,,-1.31,,, NC,, NC
CH3-1,2017-01-27T20:00:00Z,-79.35,54.00,10.72,22.73,,-1.31,,, NC,, NC
CH3-1,2017-01-27T20:10:00Z,-79.35,54.00,10.72,22.68,,-1.31,,, NC,, NC
CH3-1,2017-01-27T20:20:00Z,-79.35,54.00,10.72,22.69,,-1.31,,, NC,, NC
CH3-1,2017-01-27T20:30:00Z,-79.35,54.00,10.72,22.45,,-1.29,,, NC,, NC
CH3-1,2017-01-27T20:40:00Z,-79.35,54.00,10.72,22.16,,-1.27,,, NC,, NC
CH3-1,2017-01-27T20:50:00Z,-79.35,54.00,10.72,22.02,,-1.26,,, NC,, NC
CH3-1,2017-01-27T21:00:00Z,-79.35,54.00,10.72,22.14,,-1.27,,, NC,, NC
CH3-1,2017-01-27T21:10:00Z,-79.35,54.00,10.72,22.44,,-1.29,,, NC,, NC
CH3-1,2017-01-27T21:20:00Z,-79.35,54.00,10.72,22.56,,-1.30,,, NC,, NC
CH3-1,2017-01-27T21:30:00Z,-79.35,54.00,10.72,22.52,,-1.30,,, NC,, NC
CH3-1,2017-01-27T21:40:00Z,-79.35,54.00,10.72,22.55,,-1.30,,, NC,, NC
CH3-1,2017-01-27T21:50:00Z,-79.35,54.00,10.72,22.59,,-1.30,,, NC,, NC
CH3-1,2017-01-27T22:00:00Z,-79.35,54.00,10.72,22.58,,-1.30,,, NC,, NC
CH3-1,2017-01-27T22:10:00Z,-79.35,54.00,10.72,22.58,,-1.30,,, NC,, NC
CH3-1,2017-01-27T22:20:00Z,-79.35,54.00,10.72,22.57,,-1.30,,, NC,, NC
CH3-1,2017-01-27T22:30:00Z,-79.35,54.00,10.72,22.61,,-1.30,,, NC,, NC
CH3-1,2017-01-27T22:40:00Z,-79.35,54.00,10.72,22.59,,-1.30,,, NC,, NC
CH3-1,2017-01-27T22:50:00Z,-79.35,54.00,10.72,22.57,,-1.30,,, NC,, NC
CH3-1,2017-01-27T23:00:00Z,-79.35,54.00,10.72,22.54,,-1.30,,, NC,, NC
CH3-1,2017-01-27T23:10:00Z,-79.35,54.00,10.72,22.51,,-1.29,,, NC,, NC
CH3-1,2017-01-27T23:20:00Z,-79.35,54.00,10.72,22.44,,-1.29,,, NC,, NC
CH3-1,2017-01-27T23:30:00Z,-79.35,54.00,10.72,22.44,,-1.29,,, NC,, NC
CH3-1,2017-01-27T23:40:00Z,-79.35,54.00,10.72,22.42,,-1.29,,, NC,, NC
CH3-1,2017-01-27T23:50:00Z,-79.35,54.00,10.72,22.39,,-1.28,,, NC,, NC
CH3-1,2017-01-28T00:00:00Z,-79.35,54.00,10.72,22.42,,-1.29,,, NC,, NC
CH3-1,2017-01-28T00:10:00Z,-79.35,54.00,10.72,22.69,,-1.30,,, NC,, NC
CH3-1,2017-01-28T00:20:00Z,-79.35,54.00,10.72,22.74,,-1.31,,, NC,, NC
CH3-1,2017-01-28T00:30:00Z,-79.35,54.00,10.72,22.77,,-1.31,,, NC,, NC
CH3-1,2017-01-28T00:40:00Z,-79.35,54.00,10.72,22.75,,-1.31,,, NC,, NC
CH3-1,2017-01-28T00:50:00Z,-79.35,54.00,10.72,22.78,,-1.31,,, NC,, NC
CH3-1,2017-01-28T01:00:00Z,-79.35,54.00,10.72,22.87,,-1.32,,, NC,, NC
CH3-1,2017-01-28T01:10:00Z,-79.35,54.00,10.72,22.87,,-1.31,,, NC,, NC
CH3-1,2017-01-28T01:20:00Z,-79.35,54.00,10.72,22.83,,-1.31,,, NC,, NC
CH3-1,2017-01-28T01:30:00Z,-79.35,54.00,10.72,22.77,,-1.30,,, NC,, NC
CH3-1,2017-01-28T01:40:00Z,-79.35,54.00,10.72,22.81,,-1.31,,, NC,, NC
CH3-1,2017-01-28T01:50:00Z,-79.35,54.00,10.72,22.86,,-1.32,,, NC,, NC
CH3-1,2017-01-28T02:00:00Z,-79.35,54.00,10.72,22.74,,-1.30,,, NC,, NC
CH3-1,2017-01-28T02:10:00Z,-79.35,54.00,10.72,22.00,,-1.24,,, NC,, NC
CH3-1,2017-01-28T02:20:00Z,-79.35,54.00,10.72,22.70,,-1.29,,, NC,, NC
CH3-1,2017-01-28T02:30:00Z,-79.35,54.00,10.72,22.75,,-1.31,,, NC,, NC
CH3-1,2017-01-28T02:40:00Z,-79.35,54.00,10.72,22.76,,-1.31,,, NC,, NC
CH3-1,2017-01-28T02:50:00Z,-79.35,54.00,10.72,22.81,,-1.31,,, NC,, NC
CH3-1,2017-01-28T03:00:00Z,-79.35,54.00,10.72,22.75,,-1.31,,, NC,, NC
CH3-1,2017-01-28T03:10:00Z,-79.35,54.00,10.72,22.63,,-1.29,,, NC,, NC
CH3-1,2017-01-28T03:20:00Z,-79.35,54.00,10.72,22.70,,-1.30,,, NC,, NC
CH3-1,2017-01-28T03:30:00Z,-79.35,54.00,10.72,22.66,,-1.30,,, NC,, NC
CH3-1,2017-01-28T03:40:00Z,-79.35,54.00,10.72,22.67,,-1.30,,, NC,, NC
CH3-1,2017-01-28T03:50:00Z,-79.35,54.00,10.72,22.75,,-1.30,,, NC,, NC
CH3-1,2017-01-28T04:00:00Z,-79.35,54.00,10.72,22.89,,-1.32,,, NC,, NC
CH3-1,2017-01-28T04:10:00Z,-79.35,54.00,10.72,22.86,,-1.32,,, NC,, NC
CH3-1,2017-01-28T04:20:00Z,-79.35,54.00,10.72,22.96,,-1.32,,, NC,, NC
CH3-1,2017-01-28T04:30:00Z,-79.35,54.00,10.72,22.99,,-1.32,,, NC,, NC
CH3-1,2017-01-28T04:40:00Z,-79.35,54.00,10.72,22.99,,-1.32,,, NC,, NC
CH3-1,2017-01-28T04:50:00Z,-79.35,54.00,10.72,22.83,,-1.32,,, NC,, NC
CH3-1,2017-01-28T05:00:00Z,-79.35,54.00,10.72,22.77,,-1.31,,, NC,, NC
CH3-1,2017-01-28T05:10:00Z,-79.35,54.00,10.72,22.75,,-1.31,,, NC,, NC
CH3-1,2017-01-28T05:20:00Z,-79.35,54.00,10.72,22.77,,-1.31,,, NC,, NC
CH3-1,2017-01-28T05:30:00Z,-79.35,54.00,10.72,22.76,,-1.31,,, NC,, NC
CH3-1,2017-01-28T05:40:00Z,-79.35,54.00,10.72,23.12,,-1.33,,, NC,, NC
CH3-1,2017-01-28T05:50:00Z,-79.35,54.00,10.72,23.03,,-1.32,,, NC,, NC
CH3-1,2017-01-28T06:00:00Z,-79.35,54.00,10.72,22.83,,-1.31,,, NC,, NC
CH3-1,2017-01-28T06:10:00Z,-79.35,54.00,10.72,22.83,,-1.31,,, NC,, NC
CH3-1,2017-01-28T06:20:00Z,-79.35,54.00,10.72,22.98,,-1.32,,, NC,, NC
CH3-1,2017-01-28T06:30:00Z,-79.35,54.00,10.72,23.06,,-1.33,,, NC,, NC
CH3-1,2017-01-28T06:40:00Z,-79.35,54.00,10.72,22.98,,-1.32,,, NC,, NC
CH3-1,2017-01-28T06:50:00Z,-79.35,54.00,10.72,22.71,,-1.31,,, NC,, NC
CH3-1,2017-01-28T07:00:00Z,-79.35,54.00,10.72,22.59,,-1.29,,, NC,, NC
CH3-1,2017-01-28T07:10:00Z,-79.35,54.00,10.72,22.41,,-1.28,,, NC,, NC
CH3-1,2017-01-28T07:20:00Z,-79.35,54.00,10.72,22.66,,-1.30,,, NC,, NC
CH3-1,2017-01-28T07:30:00Z,-79.35,54.00,10.72,22.75,,-1.30,,, NC,, NC
CH3-1,2017-01-28T07:40:00Z,-79.35,54.00,10.72,22.70,,-1.30,,, NC,, NC
CH3-1,2017-01-28T07:50:00Z,-79.35,54.00,10.72,22.65,,-1.29,,, NC,, NC
CH3-1,2017-01-28T08:00:00Z,-79.35,54.00,10.72,22.76,,-1.30,,, NC,, NC
CH3-1,2017-01-28T08:10:00Z,-79.35,54.00,10.72,22.80,,-1.30,,, NC,, NC
CH3-1,2017-01-28T08:20:00Z,-79.35,54.00,10.72,22.88,,-1.31,,, NC,, NC